TVF93KN LFRS-LFKJ

Flight info

Callsign TVF93KN
Flight time 1h 38m
Altitude 25000
Route LUGEN UM184 TUPAR DCT DIDRU DCT ADATU DCT LERGA DCT TOZOT DCT OTROT DCT RETNO DCT KOLON DCT OMARD M623 VAREK
Aircraft B738/M-SDE2E3FGHIRWXY/LB1

Departure

Time 2026-04-25 13:11
Airport Nantes Atlantique Airport (LFRS)

Arrival

Time 2026-04-25 14:50
Airport Ajaccio Napoléon Bonaparte airport (LFKJ)
Time Latitude Longitude Altitude Speed Heading
2026-04-25 12:49 47.15443 -1.60171 93 ft 0 kts 27°
2026-04-25 12:54 47.15444 -1.60171 93 ft 0 kts 27°
2026-04-25 13:00 47.15444 -1.60170 93 ft 0 kts 27°
2026-04-25 13:01 47.15442 -1.60172 93 ft 2 kts 27°
2026-04-25 13:02 47.15420 -1.60190 96 ft 4 kts 39°
2026-04-25 13:02 47.15407 -1.60213 95 ft 4 kts 109°
2026-04-25 13:02 47.15418 -1.60244 96 ft 4 kts 118°
2026-04-25 13:02 47.15427 -1.60272 94 ft 4 kts 117°
2026-04-25 13:03 47.15440 -1.60307 95 ft 4 kts 121°
2026-04-25 13:03 47.15455 -1.60339 94 ft 3 kts 136°
2026-04-25 13:03 47.15473 -1.60363 94 ft 4 kts 147°
2026-04-25 13:03 47.15494 -1.60369 92 ft 4 kts 193°
2026-04-25 13:04 47.15516 -1.60352 91 ft 4 kts 232°
2026-04-25 13:04 47.15530 -1.60319 90 ft 4 kts 238°
2026-04-25 13:04 47.15533 -1.60311 89 ft 3 kts 234°
2026-04-25 13:06 47.15532 -1.60315 89 ft 3 kts 235°
2026-04-25 13:06 47.15520 -1.60376 91 ft 10 kts 274°
2026-04-25 13:06 47.15564 -1.60494 91 ft 17 kts 304°
2026-04-25 13:07 47.15568 -1.60602 93 ft 18 kts 226°
2026-04-25 13:07 47.15427 -1.60722 91 ft 18 kts 207°
2026-04-25 13:07 47.15319 -1.60804 91 ft 17 kts 207°
2026-04-25 13:07 47.15207 -1.60890 90 ft 19 kts 208°
2026-04-25 13:08 47.15131 -1.60948 90 ft 18 kts 206°
2026-04-25 13:08 47.15016 -1.61035 88 ft 19 kts 208°
2026-04-25 13:08 47.14897 -1.61125 89 ft 19 kts 207°
2026-04-25 13:08 47.14783 -1.61212 90 ft 18 kts 207°
2026-04-25 13:09 47.14672 -1.61297 90 ft 18 kts 207°
2026-04-25 13:09 47.14563 -1.61380 88 ft 18 kts 207°
2026-04-25 13:09 47.14447 -1.61468 90 ft 19 kts 208°
2026-04-25 13:09 47.14309 -1.61570 86 ft 24 kts 206°
2026-04-25 13:10 47.14167 -1.61716 83 ft 25 kts 240°
2026-04-25 13:10 47.14164 -1.61915 86 ft 20 kts 310°
2026-04-25 13:10 47.14293 -1.61856 85 ft 29 kts 29°
2026-04-25 13:10 47.14658 -1.61575 92 ft 90 kts 27°
2026-04-25 13:11 47.15380 -1.61026 88 ft 141 kts 28°
2026-04-25 13:11 47.16346 -1.60268 314 ft 163 kts 28°
2026-04-25 13:11 47.17329 -1.59421 867 ft 168 kts 41°
2026-04-25 13:11 47.17789 -1.57903 1351 ft 170 kts 96°
2026-04-25 13:12 47.17266 -1.56328 1847 ft 176 kts 128°
2026-04-25 13:12 47.16191 -1.55199 2082 ft 205 kts 156°
2026-04-25 13:12 47.14804 -1.54326 2290 ft 227 kts 155°
2026-04-25 13:12 47.13830 -1.53694 2506 ft 235 kts 155°
2026-04-25 13:13 47.11755 -1.52324 2957 ft 256 kts 155°
2026-04-25 13:13 47.10104 -1.51220 3509 ft 264 kts 155°
2026-04-25 13:13 47.08440 -1.50111 4378 ft 262 kts 155°
2026-04-25 13:13 47.06795 -1.48948 5149 ft 264 kts 148°
2026-04-25 13:14 47.05355 -1.47251 5869 ft 267 kts 137°
2026-04-25 13:14 47.03973 -1.45387 6566 ft 272 kts 138°
2026-04-25 13:14 47.02565 -1.43495 7166 ft 277 kts 138°
2026-04-25 13:14 47.01125 -1.41574 7818 ft 281 kts 139°
2026-04-25 13:15 46.99662 -1.39642 8481 ft 285 kts 139°
2026-04-25 13:15 46.98195 -1.37713 9126 ft 290 kts 139°
2026-04-25 13:15 46.96679 -1.35726 9787 ft 294 kts 139°
2026-04-25 13:15 46.95144 -1.33722 10393 ft 299 kts 139°
2026-04-25 13:16 46.93537 -1.31628 10584 ft 319 kts 139°
2026-04-25 13:16 46.91825 -1.29402 10747 ft 339 kts 139°
2026-04-25 13:16 46.90003 -1.27034 10896 ft 359 kts 139°
2026-04-25 13:16 46.88097 -1.24558 11034 ft 376 kts 139°
2026-04-25 13:17 46.86100 -1.21967 11293 ft 388 kts 139°
2026-04-25 13:17 46.84070 -1.19339 11840 ft 391 kts 139°
2026-04-25 13:17 46.82025 -1.16691 12448 ft 393 kts 139°
2026-04-25 13:17 46.79979 -1.14040 13038 ft 396 kts 139°
2026-04-25 13:18 46.77911 -1.11363 13611 ft 399 kts 139°
2026-04-25 13:18 46.75827 -1.08667 14178 ft 402 kts 139°
2026-04-25 13:18 46.73726 -1.05952 14713 ft 405 kts 139°
2026-04-25 13:18 46.71607 -1.03216 15246 ft 409 kts 139°
2026-04-25 13:19 46.69469 -1.00459 15784 ft 412 kts 139°
2026-04-25 13:19 46.67312 -0.97681 16322 ft 416 kts 139°
2026-04-25 13:19 46.65137 -0.94882 16844 ft 419 kts 139°
2026-04-25 13:19 46.63690 -0.93021 17176 ft 421 kts 139°
2026-04-25 13:20 46.60757 -0.89253 17846 ft 426 kts 139°
2026-04-25 13:20 46.58526 -0.86393 18330 ft 429 kts 139°
2026-04-25 13:20 46.56278 -0.83505 18770 ft 432 kts 139°
2026-04-25 13:20 46.54025 -0.80601 19262 ft 433 kts 140°
2026-04-25 13:21 46.51769 -0.77694 19783 ft 434 kts 140°
2026-04-25 13:21 46.49501 -0.74773 20246 ft 436 kts 140°
2026-04-25 13:21 46.47228 -0.71852 20673 ft 439 kts 140°
2026-04-25 13:21 46.44943 -0.68902 21094 ft 441 kts 138°
2026-04-25 13:22 46.42868 -0.65597 21502 ft 446 kts 129°
2026-04-25 13:22 46.41180 -0.61810 21916 ft 450 kts 119°
2026-04-25 13:22 46.39761 -0.57759 22343 ft 452 kts 118°
2026-04-25 13:23 46.36948 -0.49558 23080 ft 457 kts 118°
2026-04-25 13:23 46.35517 -0.45435 23431 ft 459 kts 118°
2026-04-25 13:23 46.34066 -0.41300 23778 ft 462 kts 118°
2026-04-25 13:23 46.32601 -0.37154 24088 ft 464 kts 119°
2026-04-25 13:24 46.31124 -0.32997 24390 ft 465 kts 119°
2026-04-25 13:24 46.29638 -0.28826 24688 ft 467 kts 119°
2026-04-25 13:24 46.28145 -0.24641 24986 ft 469 kts 119°
2026-04-25 13:24 46.26644 -0.20441 25269 ft 471 kts 119°
2026-04-25 13:25 46.25137 -0.16226 25565 ft 473 kts 119°
2026-04-25 13:25 46.23622 -0.11995 25838 ft 475 kts 119°
2026-04-25 13:25 46.22097 -0.07739 26107 ft 477 kts 120°
2026-04-25 13:25 46.20568 -0.03480 26374 ft 478 kts 120°
2026-04-25 13:26 46.19034 0.00782 26606 ft 481 kts 119°
2026-04-25 13:26 46.17618 0.05182 26739 ft 487 kts 112°
2026-04-25 13:26 46.16554 0.09837 26972 ft 489 kts 109°
2026-04-25 13:26 46.15583 0.14469 27324 ft 488 kts 108°
2026-04-25 13:27 46.14617 0.19155 27732 ft 486 kts 108°
2026-04-25 13:27 46.13646 0.23825 28123 ft 485 kts 109°
2026-04-25 13:27 46.12661 0.28476 28454 ft 485 kts 109°
2026-04-25 13:27 46.11662 0.33121 28767 ft 485 kts 109°
2026-04-25 13:28 46.10651 0.37759 29135 ft 485 kts 109°
2026-04-25 13:28 46.09967 0.40878 29379 ft 484 kts 109°
2026-04-25 13:28 46.08617 0.46999 29818 ft 485 kts 109°
2026-04-25 13:28 46.07591 0.51634 30160 ft 484 kts 109°
2026-04-25 13:29 46.06569 0.56241 30477 ft 483 kts 109°
2026-04-25 13:29 46.05546 0.60848 30778 ft 483 kts 109°
2026-04-25 13:29 46.04522 0.65452 31043 ft 483 kts 109°
2026-04-25 13:30 46.02469 0.74656 31597 ft 482 kts 110°
2026-04-25 13:30 46.01442 0.79250 31871 ft 482 kts 110°
2026-04-25 13:30 46.00413 0.83839 32153 ft 482 kts 109°
2026-04-25 13:31 45.98351 0.93007 32690 ft 481 kts 109°
2026-04-25 13:31 45.97318 0.97582 32955 ft 481 kts 109°
2026-04-25 13:31 45.96283 1.02158 33202 ft 481 kts 109°
2026-04-25 13:31 45.95247 1.06731 33416 ft 482 kts 109°
2026-04-25 13:32 45.94206 1.11313 33652 ft 482 kts 109°
2026-04-25 13:32 45.93179 1.15827 33922 ft 481 kts 109°
2026-04-25 13:32 45.92136 1.20399 34196 ft 480 kts 109°
2026-04-25 13:32 45.91098 1.24941 34539 ft 476 kts 109°
2026-04-25 13:33 45.90065 1.29452 34846 ft 474 kts 109°
2026-04-25 13:33 45.89034 1.33944 35064 ft 473 kts 109°
2026-04-25 13:33 45.88001 1.38434 35151 ft 475 kts 109°
2026-04-25 13:34 45.85916 1.47467 35155 ft 475 kts 109°
2026-04-25 13:34 45.83839 1.56432 35140 ft 472 kts 109°
2026-04-25 13:35 45.81781 1.65284 35146 ft 469 kts 109°
2026-04-25 13:35 45.79708 1.74156 35129 ft 467 kts 109°
2026-04-25 13:36 45.77643 1.82960 35134 ft 466 kts 109°
2026-04-25 13:36 45.75572 1.91756 35125 ft 466 kts 109°
2026-04-25 13:37 45.73492 2.00557 35145 ft 466 kts 109°
2026-04-25 13:37 45.71403 2.09356 35135 ft 468 kts 109°
2026-04-25 13:38 45.69298 2.18190 35128 ft 469 kts 109°
2026-04-25 13:38 45.67201 2.26956 35134 ft 471 kts 110°
2026-04-25 13:39 45.65249 2.34292 35120 ft 471 kts 117°
2026-04-25 13:39 45.61708 2.43919 35120 ft 471 kts 120°
2026-04-25 13:40 45.59102 2.50754 35123 ft 471 kts 119°
2026-04-25 13:40 45.55490 2.60402 35124 ft 471 kts 119°
2026-04-25 13:41 45.52435 2.68667 35112 ft 471 kts 118°
2026-04-25 13:41 45.49379 2.76942 35130 ft 471 kts 118°
2026-04-25 13:42 45.46318 2.85201 35115 ft 470 kts 119°
2026-04-25 13:42 45.43261 2.93423 35116 ft 470 kts 119°
2026-04-25 13:43 45.40196 3.01633 35108 ft 469 kts 119°
2026-04-25 13:43 45.37147 3.09779 35105 ft 469 kts 119°
2026-04-25 13:44 45.34077 3.17955 35110 ft 468 kts 119°
2026-04-25 13:44 45.30999 3.26130 35095 ft 468 kts 119°
2026-04-25 13:45 45.27917 3.34291 35102 ft 468 kts 119°
2026-04-25 13:45 45.24832 3.42434 35088 ft 468 kts 119°
2026-04-25 13:46 45.21742 3.50567 35094 ft 469 kts 119°
2026-04-25 13:46 45.18659 3.58658 35097 ft 469 kts 119°
2026-04-25 13:47 45.15546 3.66802 35098 ft 469 kts 119°
2026-04-25 13:47 45.12428 3.74939 35091 ft 469 kts 120°
2026-04-25 13:48 45.09305 3.83062 35135 ft 470 kts 120°
2026-04-25 13:48 45.06174 3.91182 35129 ft 470 kts 120°
2026-04-25 13:49 45.03034 3.99303 35116 ft 471 kts 120°
2026-04-25 13:49 44.99884 4.07424 35101 ft 471 kts 120°
2026-04-25 13:50 44.96747 4.15491 35090 ft 472 kts 120°
2026-04-25 13:50 44.93581 4.23607 35090 ft 472 kts 120°
2026-04-25 13:51 44.90412 4.31707 35077 ft 472 kts 120°
2026-04-25 13:51 44.87230 4.39816 35076 ft 472 kts 120°
2026-04-25 13:52 44.84042 4.47918 35070 ft 472 kts 120°
2026-04-25 13:52 44.80851 4.56003 35072 ft 472 kts 120°
2026-04-25 13:53 44.77656 4.64075 35069 ft 472 kts 120°
2026-04-25 13:53 44.74474 4.72091 35059 ft 472 kts 120°
2026-04-25 13:54 44.71270 4.80141 35060 ft 471 kts 120°
2026-04-25 13:54 44.68060 4.88183 35054 ft 472 kts 120°
2026-04-25 13:55 44.65386 4.94863 35054 ft 472 kts 120°
2026-04-25 13:55 44.62165 5.02889 35058 ft 472 kts 121°
2026-04-25 13:56 44.58936 5.10912 35063 ft 472 kts 121°
2026-04-25 13:56 44.55701 5.18928 35073 ft 472 kts 121°
2026-04-25 13:57 44.52457 5.26942 35071 ft 473 kts 121°
2026-04-25 13:57 44.49204 5.34957 35068 ft 473 kts 121°
2026-04-25 13:58 44.45938 5.42983 35058 ft 474 kts 121°
2026-04-25 13:58 44.42667 5.50997 35067 ft 475 kts 121°
2026-04-25 13:59 44.39381 5.59031 35064 ft 476 kts 121°
2026-04-25 13:59 44.35936 5.66929 35056 ft 475 kts 125°
2026-04-25 14:00 44.32225 5.74500 35054 ft 475 kts 126°
2026-04-25 14:00 44.28466 5.82074 35046 ft 474 kts 126°
2026-04-25 14:01 44.24738 5.89656 35044 ft 473 kts 126°
2026-04-25 14:01 44.21032 5.97230 35048 ft 472 kts 125°
2026-04-25 14:02 44.17334 6.04778 35038 ft 471 kts 126°
2026-04-25 14:02 44.13635 6.12305 35055 ft 471 kts 126°
2026-04-25 14:03 44.09933 6.19818 35047 ft 470 kts 126°
2026-04-25 14:03 44.06229 6.27313 35060 ft 470 kts 126°
2026-04-25 14:04 44.02546 6.34746 35060 ft 470 kts 126°
2026-04-25 14:04 43.98831 6.42225 35064 ft 470 kts 126°
2026-04-25 14:05 43.95115 6.49688 35078 ft 470 kts 126°
2026-04-25 14:05 43.91391 6.57148 35075 ft 470 kts 126°
2026-04-25 14:06 43.87658 6.64607 35065 ft 471 kts 126°
2026-04-25 14:06 43.83919 6.72058 35076 ft 470 kts 126°
2026-04-25 14:07 43.80205 6.79443 35063 ft 470 kts 126°
2026-04-25 14:07 43.76461 6.86872 35077 ft 470 kts 126°
2026-04-25 14:08 43.72637 6.94206 35068 ft 469 kts 132°
2026-04-25 14:08 43.67781 7.00145 35088 ft 466 kts 144°
2026-04-25 14:09 43.62562 7.05462 35077 ft 466 kts 144°
2026-04-25 14:09 43.57363 7.10792 35079 ft 465 kts 144°
2026-04-25 14:10 43.52191 7.16151 35071 ft 465 kts 144°
2026-04-25 14:10 43.47033 7.21508 35081 ft 464 kts 144°
2026-04-25 14:11 43.41917 7.26810 35089 ft 463 kts 144°
2026-04-25 14:11 43.36763 7.32138 35082 ft 463 kts 145°
2026-04-25 14:12 43.31603 7.37456 35100 ft 463 kts 144°
2026-04-25 14:12 43.26493 7.42715 35044 ft 447 kts 144°
2026-04-25 14:12 43.24038 7.45239 34858 ft 437 kts 144°
2026-04-25 14:13 43.21647 7.47691 34468 ft 434 kts 145°
2026-04-25 14:13 43.19216 7.50182 33597 ft 441 kts 144°
2026-04-25 14:13 43.16726 7.52732 32436 ft 454 kts 144°
2026-04-25 14:13 43.14168 7.55349 31404 ft 463 kts 143°
2026-04-25 14:14 43.11547 7.57965 30455 ft 469 kts 147°
2026-04-25 14:14 43.08672 7.60151 29412 ft 474 kts 156°
2026-04-25 14:14 43.05576 7.61761 28339 ft 478 kts 160°
2026-04-25 14:14 43.02421 7.63279 27158 ft 485 kts 161°
2026-04-25 14:15 42.99222 7.64805 26178 ft 486 kts 161°
2026-04-25 14:15 42.98145 7.65320 25820 ft 487 kts 161°
2026-04-25 14:15 42.92835 7.67893 24471 ft 484 kts 160°
2026-04-25 14:15 42.89685 7.69440 23887 ft 476 kts 160°
2026-04-25 14:16 42.86582 7.70974 23014 ft 474 kts 160°
2026-04-25 14:16 42.83516 7.72492 22343 ft 466 kts 160°
2026-04-25 14:16 42.80470 7.74001 21603 ft 462 kts 160°
2026-04-25 14:16 42.77470 7.75485 20927 ft 456 kts 160°
2026-04-25 14:17 42.74506 7.76949 20284 ft 450 kts 160°
2026-04-25 14:17 42.71578 7.78392 19635 ft 445 kts 160°
2026-04-25 14:17 42.68714 7.79802 18990 ft 441 kts 160°
2026-04-25 14:17 42.65845 7.81213 18344 ft 437 kts 160°
2026-04-25 14:18 42.62997 7.82613 17625 ft 433 kts 160°
2026-04-25 14:18 42.60179 7.83997 16971 ft 428 kts 160°
2026-04-25 14:18 42.57391 7.85364 16339 ft 424 kts 160°
2026-04-25 14:18 42.54632 7.86717 15723 ft 419 kts 161°
2026-04-25 14:19 42.51896 7.88056 15109 ft 415 kts 160°
2026-04-25 14:19 42.49192 7.89378 14508 ft 411 kts 161°
2026-04-25 14:19 42.46508 7.90690 13890 ft 409 kts 161°
2026-04-25 14:19 42.43841 7.91992 13223 ft 405 kts 161°
2026-04-25 14:20 42.41199 7.93281 12598 ft 401 kts 161°
2026-04-25 14:20 42.39461 7.94128 12194 ft 399 kts 161°
2026-04-25 14:20 42.36034 7.95797 11462 ft 392 kts 161°
2026-04-25 14:20 42.33512 7.97024 11314 ft 377 kts 160°
2026-04-25 14:21 42.31199 7.98530 11128 ft 365 kts 143°
2026-04-25 14:21 42.29423 8.00879 11005 ft 351 kts 130°
2026-04-25 14:21 42.27866 8.03362 10847 ft 341 kts 130°
2026-04-25 14:21 42.26371 8.05784 10697 ft 331 kts 130°
2026-04-25 14:22 42.24918 8.08135 10539 ft 322 kts 130°
2026-04-25 14:22 42.23496 8.10421 10457 ft 311 kts 130°
2026-04-25 14:22 42.22132 8.12603 10327 ft 303 kts 130°
2026-04-25 14:22 42.20793 8.14735 10208 ft 294 kts 130°
2026-04-25 14:23 42.19481 8.16817 10048 ft 288 kts 130°
2026-04-25 14:23 42.18183 8.18873 9755 ft 286 kts 130°
2026-04-25 14:23 42.16899 8.20903 9472 ft 284 kts 130°
2026-04-25 14:23 42.15620 8.22923 9180 ft 282 kts 131°
2026-04-25 14:24 42.14350 8.24928 8913 ft 280 kts 131°
2026-04-25 14:24 42.13084 8.26923 8627 ft 279 kts 131°
2026-04-25 14:24 42.11826 8.28906 8347 ft 278 kts 131°
2026-04-25 14:24 42.10575 8.30875 8072 ft 276 kts 131°
2026-04-25 14:25 42.09330 8.32833 7793 ft 275 kts 131°
2026-04-25 14:25 42.08087 8.34787 7477 ft 276 kts 131°
2026-04-25 14:25 42.06842 8.36743 7211 ft 271 kts 131°
2026-04-25 14:25 42.06429 8.37391 7096 ft 270 kts 131°
2026-04-25 14:26 42.04454 8.40492 6642 ft 255 kts 131°
2026-04-25 14:26 42.03317 8.42276 6358 ft 247 kts 131°
2026-04-25 14:26 42.02230 8.43981 6085 ft 239 kts 131°
2026-04-25 14:26 42.01159 8.45658 5843 ft 234 kts 131°
2026-04-25 14:27 42.00090 8.47329 5614 ft 232 kts 131°
2026-04-25 14:27 41.99053 8.48952 5376 ft 232 kts 131°
2026-04-25 14:27 41.98004 8.50590 5148 ft 231 kts 131°
2026-04-25 14:27 41.96904 8.52153 4908 ft 230 kts 136°
2026-04-25 14:28 41.95743 8.53644 4675 ft 230 kts 137°
2026-04-25 14:28 41.94590 8.55120 4438 ft 229 kts 137°
2026-04-25 14:28 41.93451 8.56585 4323 ft 222 kts 137°
2026-04-25 14:28 41.92344 8.58017 4208 ft 223 kts 137°
2026-04-25 14:29 41.91214 8.59479 4104 ft 227 kts 137°
2026-04-25 14:29 41.90073 8.60956 4027 ft 228 kts 137°
2026-04-25 14:29 41.88806 8.62116 3987 ft 224 kts 164°
2026-04-25 14:29 41.87271 8.62170 4006 ft 223 kts 196°
2026-04-25 14:30 41.85929 8.61148 4000 ft 225 kts 226°
2026-04-25 14:30 41.85201 8.57292 3992 ft 224 kts 288°
2026-04-25 14:30 41.85990 8.55504 4007 ft 224 kts 311°
2026-04-25 14:31 41.87092 8.54024 4016 ft 225 kts 315°
2026-04-25 14:31 41.88236 8.52571 4005 ft 226 kts 315°
2026-04-25 14:31 41.89379 8.51111 4004 ft 228 kts 315°
2026-04-25 14:31 41.90528 8.49648 3998 ft 228 kts 317°
2026-04-25 14:32 41.91946 8.48722 3998 ft 230 kts 351°
2026-04-25 14:32 41.93519 8.48984 4007 ft 231 kts 23°
2026-04-25 14:32 41.94761 8.50317 4000 ft 232 kts 56°
2026-04-25 14:32 41.95290 8.52332 3996 ft 231 kts 89°
2026-04-25 14:33 41.94942 8.54374 4002 ft 229 kts 120°
2026-04-25 14:33 41.93953 8.56035 4016 ft 228 kts 136°
2026-04-25 14:33 41.92807 8.57512 4003 ft 228 kts 138°
2026-04-25 14:33 41.91652 8.58973 3998 ft 228 kts 137°
2026-04-25 14:34 41.90501 8.60437 4001 ft 228 kts 138°
2026-04-25 14:34 41.89349 8.61895 4002 ft 228 kts 134°
2026-04-25 14:34 41.88627 8.63730 3993 ft 220 kts 102°
2026-04-25 14:34 41.88477 8.65683 3977 ft 202 kts 95°
2026-04-25 14:35 41.88358 8.67499 3971 ft 191 kts 96°
2026-04-25 14:35 41.88285 8.69259 3979 ft 188 kts 83°
2026-04-25 14:35 41.88834 8.70831 4012 ft 189 kts 46°
2026-04-25 14:35 41.89804 8.72067 3994 ft 194 kts 41°
2026-04-25 14:36 41.90798 8.73282 3993 ft 193 kts 41°
2026-04-25 14:36 41.91914 8.74247 3926 ft 192 kts 24°
2026-04-25 14:36 41.93123 8.75034 3712 ft 189 kts 25°
2026-04-25 14:36 41.94255 8.75809 3512 ft 179 kts 25°
2026-04-25 14:37 41.95340 8.76563 3240 ft 173 kts 24°
2026-04-25 14:37 41.96400 8.77292 2915 ft 171 kts 25°
2026-04-25 14:37 41.97445 8.78012 2606 ft 171 kts 25°
2026-04-25 14:37 41.98498 8.78770 2209 ft 172 kts 36°
2026-04-25 14:38 41.99149 8.80052 1886 ft 165 kts 85°
2026-04-25 14:38 41.98901 8.81451 1671 ft 154 kts 131°
2026-04-25 14:38 41.98069 8.82313 1296 ft 153 kts 155°
2026-04-25 14:38 41.97059 8.82739 1047 ft 154 kts 178°
2026-04-25 14:39 41.96030 8.82485 831 ft 151 kts 201°
2026-04-25 14:39 41.95081 8.81923 587 ft 148 kts 205°
2026-04-25 14:39 41.94137 8.81337 362 ft 151 kts 204°
2026-04-25 14:39 41.93208 8.80753 113 ft 145 kts 204°
2026-04-25 14:40 41.92341 8.80216 33 ft 127 kts 204°
2026-04-25 14:40 41.91497 8.79654 634 ft 143 kts 208°
2026-04-25 14:40 41.90503 8.78954 1224 ft 178 kts 209°
2026-04-25 14:40 41.89373 8.78131 1864 ft 187 kts 208°
2026-04-25 14:41 41.88236 8.77309 2672 ft 188 kts 209°
2026-04-25 14:41 41.87029 8.76503 3296 ft 197 kts 208°
2026-04-25 14:41 41.85824 8.75560 3833 ft 207 kts 224°
2026-04-25 14:41 41.85061 8.73844 4016 ft 228 kts 257°
2026-04-25 14:42 41.85103 8.71644 4066 ft 243 kts 287°
2026-04-25 14:42 41.85314 8.70939 4051 ft 240 kts 297°
2026-04-25 14:42 41.86677 8.68763 3940 ft 222 kts 314°
2026-04-25 14:42 41.87638 8.67234 3807 ft 207 kts 294°
2026-04-25 14:43 41.87811 8.65438 3744 ft 188 kts 255°
2026-04-25 14:43 41.87131 8.64060 3797 ft 175 kts 213°
2026-04-25 14:43 41.85958 8.63681 3916 ft 181 kts 171°
2026-04-25 14:43 41.84837 8.64458 3994 ft 189 kts 132°
2026-04-25 14:44 41.84319 8.66055 3992 ft 190 kts 92°
2026-04-25 14:44 41.84670 8.67725 3978 ft 189 kts 52°
2026-04-25 14:44 41.85623 8.68914 4013 ft 189 kts 40°
2026-04-25 14:44 41.86640 8.70012 4010 ft 191 kts 37°
2026-04-25 14:45 41.87700 8.71105 3999 ft 193 kts 36°
2026-04-25 14:45 41.88797 8.72165 4012 ft 193 kts 34°
2026-04-25 14:45 41.89882 8.73195 3992 ft 189 kts 34°
2026-04-25 14:45 41.91009 8.74069 3916 ft 190 kts 24°
2026-04-25 14:46 41.92223 8.74867 3598 ft 195 kts 25°
2026-04-25 14:46 41.93430 8.75692 3262 ft 194 kts 25°
2026-04-25 14:46 41.94608 8.76502 2876 ft 188 kts 26°
2026-04-25 14:46 41.95763 8.77293 2491 ft 185 kts 24°
2026-04-25 14:47 41.96901 8.78065 2134 ft 181 kts 27°
2026-04-25 14:47 41.97646 8.78564 1920 ft 181 kts 31°
2026-04-25 14:47 41.98655 8.80220 1714 ft 171 kts 82°
2026-04-25 14:47 41.98492 8.81686 1563 ft 155 kts 128°
2026-04-25 14:48 41.97685 8.82569 1269 ft 150 kts 160°
2026-04-25 14:48 41.96694 8.82815 1017 ft 148 kts 191°
2026-04-25 14:48 41.95729 8.82324 716 ft 152 kts 205°
2026-04-25 14:48 41.94767 8.81728 521 ft 152 kts 205°
2026-04-25 14:49 41.93801 8.81125 263 ft 150 kts 204°
2026-04-25 14:49 41.92870 8.80546 47 ft 142 kts 204°
2026-04-25 14:49 41.92053 8.80040 20 ft 111 kts 205°
2026-04-25 14:49 41.91490 8.79685 17 ft 68 kts 205°
2026-04-25 14:50 41.91306 8.79571 22 ft 9 kts 204°
2026-04-25 14:50 41.91253 8.79534 23 ft 9 kts 219°
2026-04-25 14:50 41.91236 8.79463 22 ft 8 kts 287°
2026-04-25 14:50 41.91276 8.79405 21 ft 9 kts 327°
2026-04-25 14:51 41.91330 8.79371 24 ft 8 kts 338°
2026-04-25 14:51 41.91384 8.79342 27 ft 8 kts 343°
2026-04-25 14:51 41.91440 8.79334 27 ft 8 kts
2026-04-25 14:51 41.91492 8.79355 27 ft 8 kts 24°
2026-04-25 14:52 41.91540 8.79384 26 ft 7 kts 24°
2026-04-25 14:52 41.91586 8.79412 26 ft 7 kts 25°
2026-04-25 14:52 41.91630 8.79440 25 ft 7 kts 24°
2026-04-25 14:52 41.91659 8.79457 27 ft 7 kts 25°
2026-04-25 14:53 41.91714 8.79493 26 ft 7 kts 25°
2026-04-25 14:53 41.91756 8.79519 28 ft 6 kts 24°
2026-04-25 14:53 41.91796 8.79543 27 ft 6 kts 25°
2026-04-25 14:53 41.91835 8.79568 29 ft 6 kts 25°
2026-04-25 14:54 41.91873 8.79592 29 ft 6 kts 25°
2026-04-25 14:54 41.91910 8.79616 25 ft 6 kts 25°
2026-04-25 14:54 41.91937 8.79587 26 ft 2 kts 302°
2026-04-25 14:54 41.91949 8.79580 27 ft 2 kts 340°
2026-04-25 14:55 41.91953 8.79578 26 ft 0 kts 343°